GW7313 Weather Reports


time (UTC)temp
C
wind
direction
speed
KPH
gust
KPH
rain 1hr
cm
rain 24hr
cm
rain mn
cm
humidity
%
barometer
mb
20260505123630 12 211 9.7 14.5 0.00 0.00 0.00 91 1015.8
20260505122638 12 215 9.7 16.1 0.00 0.00 0.00 91 1015.7
20260505121630 12 212 9.7 17.7 0.00 0.00 0.00 91 1015.6
20260505120622 12 290 6.4 16.1 0.00 0.00 0.00 91 1015.6
20260505115630 12 206 4.8 11.3 0.00 0.00 0.00 92 1015.5
20260505114702 12 179 6.4 11.3 0.00 0.00 0.00 92 1015.5
20260505113650 12 166 8.0 17.7 0.00 0.00 0.00 92 1015.5
20260505112622 12 236 8.0 16.1 0.00 0.00 0.00 92 1015.4
20260505111630 12 190 12.9 25.7 0.00 0.00 0.00 92 1015.4
20260505110622 12 214 8.0 14.5 0.00 0.00 0.00 93 1015.3
20260505101646 12 222 9.7 14.5 0.00 0.00 0.00 93 1014.9
20260505100622 12 211 8.0 16.1 0.00 0.00 0.00 94 1014.9
20260505095630 12 198 11.3 20.9 0.00 0.00 0.00 94 1014.9
20260505094622 12 203 9.7 16.1 0.00 0.00 0.00 94 1014.8
20260505093629 12 213 9.7 22.5 0.00 0.00 0.00 93 1014.7
20260505092643 12 186 12.9 25.7 0.00 0.00 0.00 93 1014.6
20260505091630 12 222 9.7 16.1 0.00 0.00 0.00 93 1014.5
20260505090642 12 195 9.7 14.5 0.00 0.00 0.00 93 1014.5
20260505085630 12 205 9.7 16.1 0.00 0.00 0.00 93 1014.5
20260505084622 12 222 8.0 14.5 0.00 0.00 0.00 93 1014.4
20260505083630 12 214 11.3 17.7 0.00 0.00 0.00 93 1014.3
20260505082638 12 221 8.0 17.7 0.00 0.00 0.00 92 1014.3
20260505081630 12 191 11.3 16.1 0.00 0.00 0.00 92 1014.2
20260505080622 12 204 8.0 14.5 0.00 0.00 0.00 92 1014.3
20260505075629 13 209 6.4 16.1 0.00 0.00 0.00 91 1014.2
20260505074622 13 202 6.4 11.3 0.00 0.00 0.00 91 1014.1
20260505073631 13 213 4.8 11.3 0.00 0.00 0.00 91 1014.0
20260505072622 13 212 8.0 12.9 0.00 0.00 0.00 91 1013.9
20260505071630 13 215 8.0 14.5 0.00 0.00 0.00 90 1013.8
20260505070622 13 223 6.4 12.9 0.00 0.00 0.00 90 1013.6
20260505065630 13 198 4.8 14.5 0.00 0.00 0.00 89 1013.6
20260505064622 13 210 6.4 11.3 0.00 0.00 0.00 89 1013.5
20260505063630 13 231 9.7 14.5 0.00 0.00 0.00 89 1013.4
20260505062622 13 215 9.7 16.1 0.00 0.00 0.00 88 1013.3
20260505061711 14 239 9.7 20.9 0.00 0.00 0.00 88 1013.1
20260505060622 14 214 9.7 17.7 0.00 0.00 0.00 87 1013.0
20260505055630 14 193 8.0 16.1 0.00 0.00 0.00 85 1012.9
20260505054622 15 216 9.7 16.1 0.00 0.00 0.00 85 1012.9
20260505053631 15 200 9.7 14.5 0.00 0.00 0.00 85 1012.8
20260505052622 15 195 9.7 14.5 0.00 0.00 0.00 84 1012.7
20260505051630 15 181 9.7 17.7 0.00 0.00 0.00 83 1012.6
20260505050622 16 231 4.8 8.0 0.00 0.00 0.00 82 1012.6
20260505041630 17 261 3.2 9.7 0.00 0.00 0.00 76 1011.9
20260505040659 18 237 3.2 8.0 0.00 0.00 0.00 75 1011.7
20260505035630 18 279 3.2 8.0 0.00 0.00 0.00 73 1011.6
20260505034623 19 310 1.6 4.8 0.00 0.00 0.00 72 1011.4
20260505033650 20 250 4.8 9.7 0.00 0.00 0.00 70 1011.2
20260505032622 20 264 4.8 8.0 0.00 0.00 0.00 70 1011.1
20260505031630 20 261 4.8 8.0 0.00 0.00 0.00 69 1011.0
20260505030622 21 251 3.2 4.8 0.00 0.00 0.00 65 1010.9
20260505025702 22 268 4.8 8.0 0.00 0.00 0.00 61 1010.8
20260505024623 22 268 3.2 9.7 0.00 0.00 0.00 61 1010.7
20260505023630 23 266 3.2 3.2 0.00 0.00 0.00 59 1010.6
20260505022622 22 266 3.2 4.8 0.00 0.00 0.00 60 1010.5
20260505021630 23 249 4.8 8.0 0.00 0.00 0.00 58 1010.5
20260505020622 24 232 3.2 8.0 0.00 0.00 0.00 57 1010.5
20260505015646 25 241 3.2 8.0 0.00 0.00 0.00 55 1010.5
20260505014622 25 220 4.8 8.0 0.00 0.00 0.00 55 1010.5
20260505013630 25 270 4.8 9.7 0.00 0.00 0.00 54 1010.5
20260505012658 25 270 3.2 8.0 0.00 0.00 0.00 53 1010.6
20260505011646 25 244 3.2 8.0 0.00 0.00 0.00 54 1010.6
20260505010622 25 272 3.2 8.0 0.00 0.00 0.00 54 1010.6
20260505005630 25 252 4.8 8.0 0.00 0.00 0.00 52 1010.7
20260505004622 26 239 4.8 8.0 0.00 0.00 0.00 51 1010.7
20260505003631 26 263 3.2 8.0 0.00 0.00 0.00 49 1010.7
20260505002622 26 246 3.2 4.8 0.00 0.00 0.00 48 1010.7
20260505001643 26 235 3.2 4.8 0.00 0.00 0.00 48 1010.8
20260505000643 26 278 4.8 4.8 0.00 0.00 0.00 48 1010.8
20260504235630 26 285 3.2 4.8 0.00 0.00 0.00 48 1010.8
20260504234622 25 244 4.8 8.0 0.00 0.00 0.00 48 1010.9
20260504233631 26 289 3.2 8.0 0.00 0.00 0.00 47 1010.9
20260504232622 26 183 3.2 8.0 0.00 0.00 0.00 46 1010.9
20260504231631 26 244 4.8 9.7 0.00 0.00 0.00 42 1010.9
20260504230623 26 284 4.8 8.0 0.00 0.00 0.00 41 1010.9
20260504225631 26 273 3.2 4.8 0.00 0.00 0.00 44 1011.1
20260504224622 26 256 3.2 4.8 0.00 0.00 0.00 44 1011.3
20260504223630 25 262 4.8 8.0 0.00 0.00 0.00 45 1011.4
20260504222622 25 260 4.8 9.7 0.00 0.00 0.00 45 1011.5
20260504221630 25 290 4.8 9.7 0.00 0.00 0.00 46 1011.6
20260504220622 25 277 4.8 8.0 0.00 0.00 0.00 49 1011.6
20260504215635 24 233 4.8 9.7 0.00 0.00 0.00 51 1011.8
20260504214622 24 261 4.8 9.7 0.00 0.00 0.00 52 1011.8
20260504213631 25 304 4.8 9.7 0.00 0.00 0.00 50 1011.9
20260504212622 24 248 4.8 11.3 0.00 0.00 0.00 52 1011.9
20260504211630 24 257 4.8 9.7 0.00 0.00 0.00 53 1012.0
20260504210622 23 279 4.8 11.3 0.00 0.00 0.00 56 1012.0
20260504205630 23 245 6.4 9.7 0.00 0.00 0.00 58 1012.1
20260504204623 23 252 6.4 12.9 0.00 0.00 0.00 57 1012.1
20260504203651 23 255 4.8 9.7 0.00 0.00 0.00 56 1012.1
20260504202622 23 270 4.8 8.0 0.00 0.00 0.00 58 1012.1
20260504201630 22 287 4.8 8.0 0.00 0.00 0.00 59 1012.1
20260504200642 22 280 4.8 8.0 0.00 0.00 0.00 60 1012.1
20260504195631 22 294 3.2 8.0 0.00 0.00 0.00 61 1012.1
20260504194622 21 274 6.4 9.7 0.00 0.00 0.00 62 1012.2
20260504193711 21 281 4.8 8.0 0.00 0.00 0.00 61 1012.2
20260504192622 21 305 3.2 4.8 0.00 0.00 0.00 63 1012.3
20260504191711 21 300 4.8 8.0 0.00 0.00 0.00 64 1012.4
20260504190623 20 288 4.8 9.7 0.00 0.00 0.00 64 1012.5
20260504185631 21 268 6.4 9.7 0.00 0.00 0.00 62 1012.5
20260504184623 20 304 4.8 8.0 0.00 0.00 0.00 62 1012.5
20260504183631 20 289 4.8 8.0 0.00 0.00 0.00 62 1012.5
20260504182622 21 265 4.8 8.0 0.00 0.00 0.00 58 1012.5
20260504181631 20 283 3.2 4.8 0.00 0.00 0.00 62 1012.6
20260504180622 19 315 1.6 4.8 0.00 0.00 0.00 63 1012.6
20260504175631 19 275 3.2 8.0 0.00 0.00 0.00 65 1012.6
20260504174643 19 291 3.2 8.0 0.00 0.00 0.00 64 1012.6
20260504173646 19 277 3.2 8.0 0.00 0.00 0.00 65 1012.6
20260504172623 18 300 3.2 8.0 0.00 0.00 0.00 67 1012.6
20260504171631 17 251 4.8 8.0 0.00 0.00 0.00 71 1012.6
20260504170622 17 305 4.8 8.0 0.00 0.00 0.00 70 1012.5
20260504150639 12 260 4.8 4.8 0.00 0.00 0.00 85 1012.0
20260504140623 13 330 3.2 3.2 0.00 0.00 0.00 87 1011.7
20260504130623 12 328 0.0 1.6 0.00 0.00 0.00 85 1011.2